Wind_Speed
12 13 13 13 13 11 8 7 8 7 6 5 5 4 4 4 4 5 6 7 7 7 8 9 10 11 12 13 14 14 14 14 14 14 14 15 15 16 17 17 17 18 18 18 18 19 19 18 18 17 17 16 16 15 14 13 13 13 13 13 13 13 14 15 15 16 17 18 18 19 19 19 19 19 18 17 16 14 13 13 13 13 12 11 11
16 16 16 16 16 15 12 9 8 8 7 6 6 5 4 4 5 4 5 6 7 6 6 5 6 7 8 10 10 11 11 12 12 12 12 12 13 13 14 14 15 15 16 16 17 17 17 17 18 17 17 17 17 16 16 15 15 15 14 14 14 14 15 15 16 16 18 19 20 20 20 20 20 19 19 18 17 16 15 14 14 14 13 12 11
20 18 17 17 19 17 14 11 9 9 9 8 8 8 5 4 4 3 2 3 5 5 5 4 3 3 4 5 6 7 8 9 9 9 10 10 10 11 11 12 12 13 13 13 14 14 15 16 16 16 17 17 17 17 17 16 16 16 16 15 15 15 16 16 16 17 18 19 20 21 21 21 21 20 20 19 18 17 17 16 16 15 14 13 13
23 21 19 19 20 19 16 13 12 11 11 11 11 10 8 4 3 2 2 1 2 3 4 5 4 3 1 2 3 4 5 6 6 7 7 7 7 8 8 9 9 10 10 11 11 12 12 13 14 15 15 16 16 16 16 16 16 16 16 16 16 16 16 16 17 17 18 19 20 21 22 22 22 22 21 20 20 19 18 18 17 16 15 14 13
25 25 24 22 21 21 20 16 14 13 13 13 13 12 11 7 3 1 3 2 1 2 3 4 5 5 4 2 2 3 4 4 5 5 5 5 5 5 5 6 6 7 8 8 9 10 10 11 12 13 13 14 15 15 16 16 16 16 16 16 16 16 16 17 17 17 18 18 19 20 21 22 22 22 21 21 20 20 19 18 17 16 15 15 15
29 28 27 24 22 23 23 20 17 16 15 16 15 13 11 9 6 4 4 4 3 2 2 3 5 5 5 5 5 5 5 6 5 5 5 4 4 3 3 3 4 5 5 6 7 8 9 10 10 11 11 12 13 13 14 14 15 15 15 15 15 15 15 16 17 17 17 18 18 19 20 20 21 20 20 20 20 19 19 18 17 17 17 17 18
33 31 29 26 24 24 25 25 22 20 18 18 17 15 12 10 9 8 7 6 5 4 4 4 5 5 5 5 6 6 6 7 7 7 6 5 4 3 2 2 2 3 4 5 6 6 7 8 9 10 10 11 11 11 12 12 12 13 13 13 13 14 14 14 15 15 15 16 17 17 18 19 19 18 18 18 18 18 18 18 18 18 19 20 21
35 32 30 28 27 27 28 28 25 23 22 21 20 19 16 13 12 12 11 10 9 8 6 6 6 7 6 5 5 6 7 8 8 8 7 6 5 4 4 3 3 3 4 5 6 6 7 7 8 9 10 11 11 11 11 11 10 10 10 10 10 11 12 12 12 13 13 14 15 16 17 17 17 17 17 17 17 17 18 18 19 20 21 22 23
35 33 31 30 30 30 31 31 30 27 26 25 24 23 21 18 16 15 14 14 14 13 10 9 9 8 8 7 6 8 8 9 10 11 11 9 7 5 4 3 3 3 3 4 5 6 7 7 8 8 9 11 12 12 11 11 9 8 7 7 7 8 9 10 10 10 11 12 13 14 14 15 15 15 16 16 17 17 18 19 20 21 22 23 24
36 36 35 34 34 35 35 35 34 33 31 29 27 26 25 24 21 19 18 18 17 16 15 14 14 12 11 9 9 9 10 10 11 12 13 13 11 9 7 5 3 3 3 3 4 5 6 7 8 8 9 10 10 11 12 12 11 8 6 5 5 5 6 7 7 7 8 9 10 10 11 12 12 13 15 16 17 19 20 21 21 22 23 24 23
40 40 40 38 37 37 37 37 37 37 34 32 29 27 26 27 26 24 23 21 20 18 18 18 18 17 15 12 11 11 11 11 11 12 13 14 14 14 13 11 9 7 5 4 5 5 6 7 8 9 10 10 10 10 11 12 12 10 7 5 5 5 5 5 5 5 5 6 6 7 8 9 10 12 13 15 17 19 20 21 21 22 22 22 22
42 42 41 39 37 36 36 37 38 37 36 34 32 29 27 28 28 27 26 24 23 22 21 21 21 21 19 17 14 14 14 14 12 13 14 15 16 16 16 15 14 12 9 7 7 7 8 9 10 10 11 11 11 11 12 13 12 11 9 7 6 6 6 5 5 4 3 3 3 4 5 7 8 9 12 14 15 16 17 18 18 18 18 18 18
41 40 39 38 36 36 37 35 33 32 34 35 34 33 31 29 29 30 29 28 28 27 25 24 23 23 22 20 17 17 17 17 16 17 18 17 17 17 18 17 15 13 12 12 11 10 10 11 11 11 11 11 12 13 13 14 13 11 10 9 8 7 7 8 7 6 3 2 2 1 2 5 7 8 10 12 14 14 14 14 13 13 13 13 12
42 40 40 38 37 38 37 34 31 33 34 34 34 35 35 34 33 32 32 31 31 31 30 27 26 25 24 22 21 21 21 20 20 22 22 20 18 18 19 20 19 17 15 15 15 14 14 13 13 12 12 12 12 13 14 15 14 12 10 10 9 8 7 9 10 9 6 4 4 4 3 4 6 8 10 11 13 13 13 13 12 11 10 9 7
43 42 41 40 41 42 40 38 38 38 37 35 33 33 35 37 36 35 35 35 34 34 34 32 29 28 26 24 24 25 25 24 24 25 25 23 20 19 20 21 22 22 20 17 15 16 16 16 15 14 14 13 13 14 15 16 15 14 12 11 10 9 8 10 12 11 9 7 7 7 7 7 7 7 9 10 12 12 13 13 12 11 9 7 6
46 46 45 44 45 44 43 43 42 40 37 34 33 33 34 35 36 37 38 39 39 37 37 36 33 31 29 29 29 29 28 27 27 28 28 26 24 22 21 21 22 24 24 21 18 17 19 19 18 17 15 14 14 14 16 16 16 15 14 13 12 10 9 12 15 14 11 10 10 10 10 9 9 9 9 10 11 12 13 13 13 13 11 10 9
52 53 51 51 51 47 44 43 42 40 38 36 36 38 37 37 39 41 41 42 42 40 38 37 37 35 33 32 33 33 32 30 29 30 30 29 26 24 23 23 23 25 27 25 22 20 21 22 22 20 18 16 15 15 16 17 17 17 16 15 13 11 10 13 16 17 15 14 13 13 12 12 11 11 11 12 12 13 14 14 14 14 14 14 13
56 57 56 56 54 51 47 46 45 44 43 42 42 44 44 42 42 43 43 44 44 42 40 39 39 39 37 36 35 36 36 34 33 32 32 30 28 27 26 26 27 28 29 27 25 24 24 24 24 23 21 19 18 17 17 17 18 18 18 18 16 14 12 14 17 19 19 18 17 16 15 15 14 14 14 14 15 15 15 16 16 16 16 16 16
59 58 57 57 55 52 50 50 49 48 48 47 47 48 48 48 46 45 45 46 45 44 43 41 41 41 41 39 37 38 39 38 36 35 34 33 31 30 30 29 30 32 31 30 29 27 25 24 25 25 24 22 20 20 20 19 19 19 19 20 19 18 16 16 17 19 21 21 21 20 19 18 18 18 18 18 18 18 17 17 17 17 17 17 18
67 63 61 61 59 58 57 55 53 52 52 52 52 51 50 51 52 52 52 51 49 49 48 44 43 44 44 42 40 39 40 40 38 37 37 36 36 35 34 33 34 34 34 34 32 29 26 25 25 26 26 25 22 21 21 22 22 22 21 21 21 21 20 19 18 19 22 23 23 23 22 21 21 21 21 21 21 22 21 20 20 20 20 19 19
73 71 68 66 65 65 63 60 59 58 59 60 59 57 55 55 56 57 57 56 55 55 53 49 47 46 45 44 44 43 42 41 41 41 40 40 40 39 38 38 37 37 37 37 35 32 28 26 26 28 29 28 25 23 22 22 23 24 24 24 23 23 22 22 21 21 22 24 25 25 24 23 23 24 24 24 25 25 25 25 24 24 24 23 23
75 73 71 68 67 67 66 64 62 63 64 65 66 65 64 62 62 62 61 60 59 59 57 55 53 51 49 47 48 48 47 45 44 44 45 45 44 43 42 41 41 41 41 41 39 37 32 28 28 29 30 30 28 25 23 23 24 25 26 26 27 26 25 24 24 23 24 25 25 26 25 25 24 24 25 26 26 27 27 28 28 29 29 29 28
77 75 73 70 67 67 68 67 66 66 67 66 67 70 71 69 68 67 66 63 61 60 59 58 56 55 54 51 51 52 52 51 49 47 48 49 48 46 45 45 44 45 45 44 43 42 38 34 32 32 32 32 30 27 25 25 25 26 27 28 29 29 29 28 27 26 26 26 27 27 26 25 25 25 26 26 26 27 27 27 28 30 31 31 31
83 81 79 76 74 73 72 71 71 71 70 69 67 69 71 71 70 71 71 69 65 61 60 58 58 57 56 53 52 52 53 54 54 52 52 52 51 49 48 47 46 46 46 46 47 47 45 42 40 39 38 37 35 32 29 27 28 29 30 31 31 31 31 32 32 31 30 29 28 28 27 26 26 26 27 27 27 27 27 27 28 29 31 31 31
87 88 87 85 83 81 78 76 75 75 74 72 70 69 70 72 72 72 73 73 70 66 63 60 59 59 57 54 52 51 52 54 56 57 57 57 57 55 53 51 50 48 47 47 47 48 49 49 47 46 45 44 44 42 38 35 33 33 33 34 35 35 34 34 34 35 34 33 32 31 29 28 28 28 28 27 27 28 28 29 30 30 31 32 32
92 92 93 92 91 89 86 83 80 78 75 73 71 69 69 71 73 73 72 72 71 68 65 62 61 60 60 59 58 57 57 57 58 59 60 61 62 62 60 58 56 54 52 50 48 49 51 52 52 51 51 50 51 51 50 48 44 42 40 39 39 39 39 38 37 37 38 38 37 35 34 32 31 30 29 29 28 28 28 29 31 32 33 33 34
94 95 96 97 96 96 95 92 89 86 82 78 75 71 68 68 72 74 73 72 71 69 67 66 65 65 65 65 66 66 66 65 64 62 62 63 64 65 66 64 62 60 58 56 55 55 55 55 55 55 55 55 55 56 56 56 55 54 51 48 46 45 45 43 42 41 41 41 41 41 40 38 36 35 33 32 31 30 28 28 31 33 35 36 36
97 97 98 100 100 100 100 99 98 96 93 89 85 81 76 72 72 73 74 74 73 72 72 72 72 73 74 74 73 72 72 71 70 69 67 66 66 66 68 68 68 67 66 64 64 63 62 61 60 58 58 58 59 60 60 61 61 61 59 57 55 53 51 50 48 47 46 45 44 44 44 43 42 41 39 37 36 34 32 31 31 33 35 37 39
99 99 100 101 102 103 103 103 102 101 100 98 95 94 92 88 84 80 78 77 75 75 74 72 71 73 75 77 79 80 79 77 76 75 75 74 73 72 72 73 73 73 72 71 71 72 71 69 67 65 63 63 63 63 64 65 65 65 65 64 63 61 59 57 55 53 52 51 49 48 47 47 47 46 44 43 41 39 37 36 35 36 37 38 40
100 101 102 102 103 104 104 105 104 104 103 102 100 100 100 100 99 96 92 89 85 83 82 82 80 78 77 77 80 83 85 84 82 81 81 82 82 81 81 81 80 79 79 78 78 79 78 77 76 74 72 71 70 69 69 69 69 70 70 70 69 68 66 64 62 60 58 57 55 53 52 51 51 50 49 47 46 44 42 40 40 41 40 41 41
102 102 103 104 105 106 106 106 106 106 106 105 104 103 103 103 104 104 102 101 98 95 94 94 94 92 89 87 86 85 86 88 88 87 87 87 87 88 88 88 87 87 87 86 85 85 84 84 83 83 82 81 80 79 77 75 74 74 73 73 73 73 72 70 68 66 64 63 61 59 58 57 56 55 54 52 51 48 46 44 44 43 43 43 44
106 105 105 105 106 107 107 108 107 107 107 107 107 107 107 106 106 107 107 107 107 106 104 102 100 98 96 95 94 92 91 91 91 92 92 91 91 91 91 91 92 92 92 92 92 91 90 90 89 89 89 89 88 87 85 82 80 78 77 76 76 76 75 74 73 72 70 69 67 65 64 63 62 62 61 59 57 55 52 50 48 47 46 46 46
109 109 108 108 108 108 108 109 109 109 109 109 109 109 109 109 109 109 110 110 110 110 110 109 107 104 102 100 100 100 99 97 94 93 93 94 94 94 94 94 95 96 96 96 96 95 95 94 94 94 93 93 93 92 90 88 86 83 81 80 79 78 78 78 78 78 77 75 74 72 70 69 68 68 68 66 65 63 61 59 56 54 53 52 50
111 111 111 111 110 110 110 110 110 110 111 111 111 111 111 112 112 111 111 111 111 110 109 108 108 107 106 105 105 105 105 103 100 97 96 95 96 97 98 98 99 99 100 100 100 99 99 98 98 98 97 97 96 95 94 92 90 88 86 84 82 82 82 82 82 82 81 80 79 78 76 75 74 73 73 72 71 70 69 67 65 63 62 60 58
111 112 113 113 113 113 112 112 111 111 112 112 112 113 113 113 114 114 114 114 114 114 113 112 112 111 111 110 110 109 109 108 106 103 101 100 100 100 101 102 102 103 103 103 103 103 103 102 102 101 101 100 100 99 98 96 95 93 91 89 87 87 86 87 86 86 85 84 83 82 81 80 79 78 77 76 76 76 75 73 71 70 68 67 65
112 112 113 113 114 114 114 114 114 114 114 113 113 114 114 115 115 116 116 117 117 117 117 117 116 116 115 114 114 113 112 111 110 109 108 107 106 105 104 105 105 106 106 106 106 106 105 105 105 104 104 104 103 102 101 100 98 97 95 94 92 91 91 91 90 89 88 87 86 86 85 85 84 83 82 80 80 80 80 79 77 75 74 72 71
113 113 113 113 113 114 115 116 116 117 117 116 116 115 115 116 116 117 118 118 119 119 119 119 119 118 118 117 117 116 115 114 114 113 112 111 110 108 108 107 108 108 108 108 108 107 107 107 107 106 106 106 106 105 104 103 102 101 100 98 97 96 95 94 94 93 92 91 90 90 90 89 88 87 86 85 84 83 83 83 82 81 79 77 75
115 115 114 114 114 114 115 116 117 117 118 118 119 118 118 118 118 118 119 119 119 120 120 120 120 120 120 120 120 119 119 118 117 116 115 114 113 112 111 111 111 111 111 111 110 110 110 110 110 109 109 108 108 108 107 106 106 105 104 103 102 100 99 98 98 97 96 94 94 93 93 93 92 90 89 88 87 86 86 86 86 85 84 83 81
117 116 116 116 115 115 115 116 116 117 118 119 119 120 120 121 121 121 121 121 120 121 121 121 121 121 121 121 122 122 121 121 120 119 118 118 117 116 115 115 115 115 115 115 115 114 114 113 113 113 112 112 111 110 110 109 108 108 107 106 106 105 104 102 102 101 100 99 98 97 96 96 95 94 93 91 90 89 89 89 88 88 88 87 86
118 118 118 117 117 117 117 117 117 118 118 119 119 120 120 121 122 123 123 123 123 122 123 123 123 122 122 122 123 123 123 122 122 121 121 121 120 119 119 118 118 118 118 118 118 118 117 116 116 116 115 114 114 113 112 111 111 110 110 109 109 108 107 107 105 105 104 103 102 101 100 99 98 98 97 96 94 93 92 91 91 91 91 91 91
117 117 118 118 118 118 118 119 119 119 119 119 120 120 120 121 122 123 123 124 124 124 124 125 125 124 124 125 125 125 125 124 124 124 123 123 122 122 122 121 121 121 121 121 121 121 121 120 120 119 118 118 117 116 115 114 113 113 112 112 112 111 110 110 109 109 108 107 106 105 104 103 102 101 100 99 98 97 96 95 94 94 94 94 94
115 116 117 117 118 118 119 119 120 120 120 120 121 121 121 121 122 123 123 124 124 125 125 126 126 126 126 127 127 127 127 127 127 127 126 126 125 125 124 124 124 124 124 125 125 124 124 123 122 122 121 121 121 120 119 118 117 116 116 115 115 114 114 113 113 113 112 111 110 109 108 107 106 105 104 103 102 101 99 99 98 97 97 97 97
113 114 115 116 116 117 118 119 120 120 121 121 121 121 122 122 123 123 124 124 125 125 125 126 126 127 127 128 128 129 129 129 129 129 129 129 128 128 128 127 127 127 127 128 128 128 127 126 125 125 124 124 123 123 123 122 122 121 121 120 119 119 118 117 117 116 116 115 115 114 113 112 110 109 108 106 105 104 104 103 102 101 100 100 100
111 112 113 113 114 115 116 117 118 119 120 120 121 122 122 122 123 123 124 124 125 125 126 126 127 127 127 128 129 129 129 130 130 131 131 131 131 131 131 130 130 130 131 131 131 130 130 129 129 128 128 128 127 126 126 125 125 124 124 123 123 122 122 121 121 120 120 119 119 118 117 116 115 114 112 111 109 108 108 107 107 106 105 104 103
109 110 111 111 112 113 114 115 116 117 118 119 119 120 121 122 122 123 124 124 125 125 126 127 127 128 128 128 129 129 130 130 130 131 131 132 132 133 133 132 132 133 133 133 133 133 133 132 132 132 131 131 131 130 130 129 128 127 126 126 125 124 124 123 123 123 123 123 122 122 121 121 120 118 117 116 115 113 112 111 111 111 110 109 108
108 109 109 110 111 112 112 113 114 115 116 116 117 118 118 119 120 121 122 123 124 125 126 127 127 128 128 129 130 130 131 131 131 131 132 132 133 133 133 134 134 134 135 135 134 134 134 134 134 134 134 133 133 133 133 133 132 132 131 130 128 127 127 126 125 125 125 124 124 124 124 124 124 123 122 121 120 118 117 116 116 115 114 114 113
110 110 110 110 111 111 112 113 114 114 115 115 116 116 117 117 118 119 120 121 122 123 124 125 126 127 128 129 130 130 131 132 132 133 133 133 134 134 134 134 135 135 135 135 135 135 135 135 135 135 135 135 135 135 135 135 135 134 134 133 132 131 131 130 129 128 128 127 126 126 126 126 126 126 126 125 125 123 122 121 120 119 119 118 117
115 114 113 113 113 113 114 114 115 115 116 116 116 117 117 117 118 118 119 119 120 121 121 122 124 125 126 128 129 130 131 132 133 133 134 134 135 135 135 135 136 136 136 136 136 136 136 135 135 135 135 135 135 135 135 135 135 135 135 135 135 134 133 133 132 132 132 131 131 130 130 129 129 129 129 129 128 127 126 125 124 123 123 122 121
117 116 115 115 115 115 115 115 116 116 117 117 118 118 118 119 119 119 119 120 120 121 121 121 122 123 123 125 126 127 129 130 132 133 134 135 135 136 136 137 137 137 137 137 137 136 136 136 136 136 136 136 136 136 136 136 136 136 136 136 135 135 134 134 133 133 133 133 133 133 133 133 132 132 132 132 132 131 130 129 128 127 127 126 125
114 114 114 114 114 114 114 115 115 116 117 117 118 119 119 120 120 121 121 121 122 122 122 123 123 123 124 124 125 125 126 128 129 130 132 133 134 135 136 137 137 137 137 137 137 137 137 136 136 136 136 136 136 136 136 136 136 136 136 136 136 136 136 135 135 134 134 134 134 134 134 134 134 134 135 135 135 134 134 133 132 132 131 130 129
109 109 110 110 111 111 112 112 113 113 114 114 115 116 117 117 118 119 120 120 121 122 122 123 123 124 124 125 126 126 127 127 128 129 130 131 131 132 133 134 134 135 135 135 136 136 136 136 136 136 136 136 136 136 136 136 136 136 136 136 136 136 136 136 136 136 136 135 135 135 135 135 135 135 136 136 136 136 136 136 135 135 135 134 134
Wind_Direction
261 275 283 284 284 290 298 306 312 315 316 316 308 310 323 324 330 352 5 14 28 39 46 47 48 49 49 50 51 53 53 53 52 52 53 53 54 54 55 55 55 55 54 53 52 51 51 50 50 49 47 45 44 43 41 39 36 33 31 28 25 21 18 16 14 12 11 14 17 20 23 27 31 32 33 34 35 37 39 41 44 47 51 49 43
251 262 272 278 278 280 286 290 294 296 298 298 289 282 292 300 300 321 344 349 357 9 22 34 43 48 49 48 46 47 48 48 48 48 47 46 46 48 49 50 50 50 50 50 48 47 45 44 43 41 40 38 37 37 36 34 32 30 29 27 25 23 20 17 16 14 11 12 17 21 24 28 33 36 37 39 41 43 45 49 52 56 58 56 50
244 252 261 269 273 274 277 279 278 277 281 284 280 272 267 277 278 279 316 331 329 335 342 350 9 41 53 52 48 46 46 44 43 44 44 41 38 38 40 42 42 42 42 43 43 42 41 39 37 35 34 32 30 30 29 29 28 27 27 25 24 22 20 17 16 15 12 11 14 18 22 26 30 35 39 42 44 47 48 50 53 58 59 59 58
240 245 249 255 261 263 263 265 266 265 267 271 274 271 258 248 259 252 237 264 298 306 312 315 317 327 11 53 53 49 49 46 41 39 40 40 36 32 30 31 32 32 31 31 32 32 32 31 30 28 27 26 24 23 22 23 22 22 22 22 21 20 17 15 14 14 13 13 13 16 19 24 28 32 38 43 46 49 50 51 54 58 61 64 68
239 241 243 246 250 253 253 253 253 255 256 257 266 274 267 248 240 250 241 239 244 279 303 306 305 309 318 339 10 29 37 41 42 37 34 35 35 31 24 20 19 18 17 17 16 17 17 18 20 19 18 18 17 16 15 16 16 16 16 16 16 15 14 12 11 11 12 13 14 17 20 24 29 33 38 43 47 51 53 55 58 62 68 73 79
238 238 240 243 246 251 253 250 248 250 252 252 254 267 274 265 255 254 255 251 243 253 293 306 302 302 310 318 328 342 1 13 21 27 28 26 24 22 17 6 359 356 357 357 358 360 360 1 3 6 7 8 9 10 9 9 10 10 10 11 11 11 10 8 7 8 11 12 15 20 23 26 31 37 42 47 50 55 59 62 66 71 76 81 85
238 238 240 243 243 247 250 250 251 253 255 255 251 253 261 265 260 256 255 254 248 245 260 284 289 290 296 303 311 319 329 342 351 0 9 12 11 5 356 345 336 330 330 333 336 340 344 345 347 349 351 353 356 359 0 1 3 5 6 6 6 6 5 4 4 7 11 14 17 23 29 32 36 42 48 53 58 63 67 70 75 79 81 84 87
239 239 241 245 245 245 246 246 249 256 259 258 256 251 248 248 254 257 257 257 256 249 248 263 279 284 285 290 305 315 316 320 324 329 336 346 357 359 354 346 339 333 328 325 325 326 327 329 331 334 335 337 341 344 346 348 351 356 360 1 1 360 358 358 2 8 15 21 23 30 37 40 45 51 56 61 67 72 76 79 82 86 88 90 92
241 241 240 242 244 245 245 245 248 257 262 260 257 253 247 241 243 250 256 262 264 260 256 263 273 278 277 278 296 313 315 312 311 310 311 315 321 327 333 340 349 347 338 328 323 321 318 315 315 316 319 322 326 329 330 331 333 339 346 351 352 352 350 350 357 8 19 25 29 37 45 49 55 62 68 73 77 81 85 88 90 92 95 97 99
243 243 239 239 241 243 245 246 249 256 260 259 256 253 247 242 240 241 247 256 262 264 265 267 269 272 273 271 281 296 302 302 303 307 310 309 308 306 301 300 316 337 348 341 327 314 308 303 300 300 300 303 309 315 317 318 319 319 324 332 335 336 339 342 348 2 19 27 32 42 52 59 67 77 82 87 91 93 94 96 98 100 102 103 104
242 240 237 238 241 244 246 249 253 255 255 253 253 250 247 244 243 243 244 247 252 256 261 263 264 267 269 271 274 280 281 281 287 300 308 309 310 310 308 305 305 308 319 339 342 331 319 309 302 297 295 294 298 302 305 306 308 307 305 308 313 316 321 329 336 348 8 21 33 51 67 74 83 94 100 103 105 106 107 107 107 108 108 108 109
240 239 239 240 242 245 248 252 255 253 249 247 247 246 245 245 245 247 249 249 249 249 251 255 258 261 264 267 271 274 271 267 271 283 295 300 305 309 310 308 308 306 302 304 318 328 330 329 324 314 305 300 297 296 295 295 297 299 300 303 304 306 307 307 309 318 338 359 18 60 90 101 107 114 119 120 119 119 118 118 117 115 115 114 115
237 237 241 243 243 247 250 251 251 247 244 246 248 247 247 248 248 250 252 253 252 251 249 249 252 256 259 261 264 268 269 266 267 275 284 291 297 303 303 300 302 305 301 295 297 305 315 325 330 328 321 311 302 295 291 290 291 296 301 304 303 302 302 297 289 280 272 282 305 339 124 130 135 140 141 140 138 137 135 133 131 128 126 125 122
234 235 239 242 243 245 246 244 242 238 236 241 247 250 252 253 252 254 255 255 254 253 252 250 248 249 252 254 256 260 263 263 264 272 280 285 291 297 299 296 296 298 298 295 295 297 300 308 315 319 321 319 312 301 294 291 292 295 297 296 292 291 289 285 279 268 252 242 246 242 212 178 164 162 161 161 159 157 156 154 152 150 147 145 140
232 233 234 236 239 240 240 239 238 237 237 240 244 248 251 253 254 257 258 258 256 254 253 251 247 244 244 245 248 251 254 255 258 264 271 277 282 287 292 293 294 294 293 291 291 293 293 295 298 302 307 311 311 309 306 302 299 297 295 290 286 284 282 278 273 264 253 247 245 239 227 214 204 194 187 184 181 179 177 175 174 173 174 177 183
229 229 228 229 233 237 238 237 236 237 241 244 243 243 245 247 248 249 251 253 254 253 252 250 246 243 242 242 244 245 247 250 254 258 263 268 271 274 279 283 286 288 288 286 286 289 290 289 289 291 295 298 302 307 311 311 308 304 299 294 290 288 283 277 272 266 259 254 250 247 242 235 226 221 217 213 207 203 201 200 199 198 200 205 211
228 228 226 227 231 234 233 233 236 238 239 239 237 235 234 236 239 239 240 245 250 251 250 249 247 244 243 243 244 244 244 246 249 253 258 261 262 265 270 273 274 276 278 277 279 285 288 286 284 285 287 289 292 298 305 310 311 309 305 300 295 292 286 277 273 271 268 263 257 253 251 248 243 237 236 233 228 224 222 223 222 220 220 222 222
226 227 227 227 231 234 233 233 236 237 235 232 232 231 230 231 235 238 240 243 246 246 245 245 245 243 242 243 244 244 245 246 246 249 253 254 254 258 263 266 268 269 268 267 272 280 284 282 280 280 282 284 287 291 297 304 309 311 310 306 300 294 285 275 272 274 274 269 264 259 255 253 253 251 248 245 242 238 236 236 237 235 233 233 234
225 224 227 228 229 232 234 233 232 231 230 229 229 230 231 230 233 237 238 239 242 243 241 241 242 242 242 244 245 244 243 245 247 250 251 250 249 252 256 259 263 266 265 263 267 275 279 278 275 275 277 281 285 288 291 294 298 304 308 309 306 300 291 279 271 270 271 269 266 262 258 257 257 256 254 252 251 248 244 242 243 244 241 239 241
227 225 226 227 226 228 231 231 228 228 228 228 228 229 230 230 231 234 234 232 233 237 239 238 239 240 241 243 245 244 240 241 246 250 250 249 248 249 251 254 258 262 263 262 265 271 274 274 273 272 272 276 279 283 287 290 291 294 298 301 303 303 299 291 282 273 269 267 266 265 262 260 259 258 257 256 255 254 251 248 246 247 246 244 244
228 227 226 226 227 229 231 232 232 231 230 230 230 230 231 231 231 233 234 232 231 234 236 236 238 240 242 242 244 244 241 241 244 248 248 247 247 247 249 251 254 258 260 261 263 269 272 271 272 271 269 271 275 278 283 288 290 292 292 293 295 298 299 297 292 283 275 270 268 267 266 264 263 261 260 259 259 258 257 256 253 251 250 248 247
228 228 226 225 227 231 232 232 233 234 233 233 233 234 235 235 234 235 237 236 234 234 236 239 241 243 245 246 246 246 244 244 245 247 248 246 245 245 247 249 252 256 259 260 262 266 270 272 274 273 270 269 272 275 279 284 288 290 291 290 290 291 293 294 293 290 284 278 274 271 268 267 265 264 262 262 262 261 261 261 261 259 257 255 253
227 228 227 226 228 231 232 232 233 235 235 235 235 236 238 238 237 238 238 237 236 236 238 242 245 246 247 249 248 247 247 247 246 246 247 247 246 246 247 248 249 253 257 260 262 265 269 272 276 278 275 270 270 272 276 280 284 287 289 289 289 288 288 289 290 289 287 283 280 277 274 271 268 266 264 264 263 263 263 263 264 264 264 262 260
228 228 229 230 231 234 235 235 235 236 236 235 235 238 240 240 240 239 239 238 238 239 241 244 247 247 248 249 248 247 248 249 249 248 247 247 246 246 247 248 248 249 253 258 262 266 269 271 274 276 276 273 271 272 275 278 281 284 286 287 287 286 285 284 284 285 285 284 283 281 279 278 276 272 270 268 267 266 264 264 264 265 266 267 265
230 230 230 232 234 236 236 235 235 235 235 235 235 238 241 243 242 242 241 240 240 241 242 244 245 245 245 246 247 248 250 251 252 252 251 250 248 247 246 247 248 248 249 252 257 262 266 269 271 272 273 273 272 273 275 277 279 281 283 283 284 284 283 283 282 281 280 281 281 281 280 281 281 279 277 274 273 271 269 268 267 266 267 268 267
231 231 232 233 234 236 236 236 234 234 234 233 233 235 239 241 241 241 241 241 240 240 240 240 240 241 243 245 247 250 252 254 255 255 253 252 252 251 250 250 250 250 248 248 251 256 261 264 267 269 271 272 272 272 273 275 276 278 279 280 281 281 281 281 281 280 278 277 277 277 277 279 280 280 279 276 274 273 272 272 272 271 270 269 269
232 232 233 234 234 236 237 237 236 236 235 234 233 232 234 237 239 240 240 239 239 238 237 238 239 241 244 247 249 251 253 255 256 256 254 253 253 252 252 252 253 253 252 251 252 256 260 263 265 267 269 271 272 272 272 273 273 275 275 276 277 278 278 278 278 279 278 277 275 274 274 275 276 277 276 275 273 271 270 271 273 275 275 273 272
233 233 233 234 235 236 237 238 239 239 238 237 236 234 233 234 236 238 239 240 240 239 238 239 242 245 247 249 250 252 254 255 256 256 255 254 253 253 252 252 253 255 256 256 257 260 262 263 264 266 268 269 271 272 272 272 273 273 274 274 274 274 275 275 275 276 277 277 276 275 274 273 273 273 273 273 271 270 269 269 270 273 276 277 276
234 234 234 234 235 236 237 238 239 240 240 239 238 237 236 236 236 237 238 239 241 241 240 241 242 245 248 250 251 252 253 255 256 257 256 255 255 255 255 254 254 254 255 257 260 262 264 264 264 265 267 268 269 270 271 272 272 273 273 273 273 273 273 273 273 274 275 276 276 276 275 274 273 273 273 272 271 269 268 268 269 272 273 275 276
235 235 235 235 236 236 237 238 239 239 240 240 239 238 238 239 240 241 240 241 241 241 242 243 244 245 247 250 252 253 254 256 257 258 258 257 256 256 256 256 256 256 256 256 258 261 263 264 265 265 266 267 268 269 269 270 270 271 271 272 272 272 271 271 271 272 273 273 274 275 276 275 274 273 273 272 271 270 268 267 268 270 271 271 272
236 236 236 236 236 237 237 238 238 239 239 240 240 240 239 239 241 242 243 244 244 244 245 246 247 248 248 249 251 252 254 256 258 260 260 259 258 257 257 257 257 257 257 258 258 260 261 263 264 265 266 267 268 269 269 269 269 268 268 269 269 270 269 269 269 271 272 272 272 273 274 275 275 274 273 272 271 270 268 267 267 268 268 269 270
236 236 237 237 237 237 238 238 239 239 240 240 240 241 241 241 241 242 243 245 246 246 247 248 250 250 250 250 249 250 252 254 256 259 260 260 259 259 258 258 258 259 259 259 259 260 261 262 263 264 265 266 267 268 269 269 269 268 267 266 266 267 267 267 268 270 271 271 271 271 272 273 274 274 273 272 271 269 267 266 266 267 268 269 270
237 237 237 238 238 238 238 239 239 240 240 241 241 241 242 242 243 243 244 245 246 247 247 249 250 251 251 251 251 251 253 254 254 256 257 258 259 259 259 260 260 260 260 260 260 261 261 262 263 264 264 265 266 267 268 268 268 268 267 265 264 263 263 264 265 268 269 270 270 270 271 271 272 273 273 273 272 271 269 268 266 267 268 269 271
238 238 238 239 239 239 239 240 240 240 241 241 241 242 242 243 243 244 245 245 246 247 247 248 249 250 251 252 252 253 254 255 255 254 254 255 256 257 258 259 260 260 261 261 261 261 262 262 263 264 265 265 266 266 266 266 267 267 266 265 264 263 262 262 263 265 267 268 269 270 270 271 271 271 272 272 272 272 271 270 269 268 268 268 269
239 239 239 239 240 240 241 241 241 241 241 242 242 242 243 244 244 245 245 246 247 247 248 249 250 251 252 253 253 254 254 255 255 255 254 255 256 256 256 257 258 259 260 260 261 262 262 263 263 264 265 265 266 266 266 266 266 266 266 265 264 263 262 262 263 263 264 265 266 268 269 270 270 270 270 270 271 271 271 271 270 269 268 268 268
241 240 240 240 240 241 241 242 242 242 243 243 243 243 243 244 244 245 246 246 247 248 249 251 252 253 253 254 254 254 255 255 255 256 256 256 257 257 257 256 257 257 258 259 260 261 261 262 263 264 264 265 265 266 266 266 266 266 266 265 265 264 263 263 263 263 263 264 264 265 267 268 269 270 269 269 269 269 270 270 270 270 269 268 267
243 242 242 242 242 242 242 242 243 243 244 244 244 244 244 245 245 245 246 247 247 248 250 251 252 253 254 254 255 255 255 256 256 256 257 257 258 258 257 257 256 257 257 258 259 259 260 261 262 263 263 264 264 265 265 265 265 265 265 265 265 264 264 264 264 263 263 263 263 264 265 266 267 268 268 268 268 268 268 269 269 270 269 268 267
243 244 244 244 244 244 244 244 244 244 244 245 245 245 246 246 246 246 246 247 247 248 249 250 251 252 253 254 254 255 255 256 256 257 257 257 258 258 257 257 256 256 256 257 258 259 260 260 261 262 262 263 263 264 264 264 264 265 265 265 264 264 264 264 264 264 264 264 264 264 265 265 265 266 266 266 267 267 267 267 268 268 268 268 267
244 244 244 245 245 245 245 245 245 245 245 246 246 246 247 247 247 247 247 248 248 248 249 250 250 251 252 253 254 254 255 256 256 256 257 257 257 257 257 257 257 257 257 257 257 258 259 260 260 261 261 262 262 262 263 263 264 264 264 264 264 264 264 264 264 264 264 264 264 264 264 265 265 265 265 265 265 265 265 266 266 267 267 267 267
244 245 245 245 245 246 246 246 246 246 247 247 247 247 247 248 248 249 249 249 249 249 250 250 251 251 251 252 253 254 254 255 255 256 256 257 257 257 257 257 257 257 257 257 257 258 258 259 260 260 260 261 261 261 261 262 262 263 263 263 264 264 264 264 264 264 264 264 264 264 264 264 264 264 265 265 265 265 264 264 264 265 265 266 266
245 245 246 246 246 246 246 247 247 247 247 248 248 248 248 249 249 249 250 250 250 250 251 251 251 252 252 252 253 253 254 254 255 255 255 256 256 257 257 257 257 257 257 258 258 258 258 259 259 259 259 260 260 260 260 260 261 261 262 262 263 263 263 264 264 264 264 264 264 264 263 263 263 264 264 264 264 264 264 264 264 264 264 264 264
245 246 246 246 247 247 247 247 248 248 248 248 249 249 249 250 250 250 250 251 251 251 251 252 252 252 253 253 253 254 254 254 255 255 255 255 255 256 256 257 257 257 258 258 258 258 259 259 259 259 259 259 259 259 259 259 259 260 260 261 261 262 262 262 263 263 264 264 264 264 263 263 263 263 263 263 263 263 263 263 263 263 263 263 264
246 246 247 247 248 248 248 248 248 249 249 249 249 250 250 250 250 251 251 251 252 252 252 252 253 253 253 253 254 254 254 255 255 255 256 256 256 256 256 256 257 257 257 258 258 258 259 259 259 259 259 259 259 259 259 259 259 259 260 260 260 261 261 261 262 262 263 263 263 264 264 264 263 263 262 262 262 263 263 263 263 262 262 262 263
247 247 247 248 248 249 249 249 250 250 250 250 250 250 251 251 251 252 252 252 253 253 253 253 253 253 254 254 254 255 255 255 255 256 256 256 257 257 257 257 257 257 257 258 258 258 258 259 259 259 259 259 260 260 260 260 260 259 259 259 259 260 260 261 261 262 262 263 263 263 263 263 263 263 263 263 262 262 262 262 263 263 262 262 262
247 248 248 249 249 250 250 251 251 251 251 252 252 252 252 252 252 253 253 253 254 254 254 254 254 254 254 255 255 255 255 256 256 256 256 257 257 257 258 258 258 258 258 258 258 259 259 259 259 259 259 259 260 260 260 260 260 260 260 260 260 259 260 260 260 261 261 262 262 263 263 263 263 263 263 263 263 263 263 263 263 263 263 262 262
248 248 249 250 250 251 252 252 252 253 253 254 254 254 254 254 254 254 254 254 255 255 256 256 256 256 256 256 256 256 256 256 257 257 257 257 257 257 258 258 258 259 259 259 259 259 259 260 260 260 260 260 260 260 260 260 260 261 261 261 260 260 260 260 260 260 260 261 261 261 262 262 263 263 263 263 263 263 263 263 263 263 263 262 262
251 251 251 251 251 252 253 253 254 254 255 255 256 256 256 256 256 256 256 256 256 256 257 257 257 257 258 258 258 258 258 258 258 258 258 258 258 258 258 258 258 259 259 259 259 260 260 260 260 260 261 261 261 261 261 261 261 261 261 261 261 261 261 261 261 261 261 261 260 260 260 261 261 262 262 263 263 263 263 263 263 263 263 262 262
255 254 254 253 253 253 253 254 254 255 255 256 256 257 257 257 258 258 258 258 258 258 258 258 258 258 259 259 259 259 259 259 259 259 259 259 259 259 259 259 259 259 259 260 260 260 260 260 260 261 261 261 261 261 261 262 262 262 262 262 262 262 261 261 261 261 261 261 261 261 261 261 261 261 261 262 262 262 263 263 263 263 263 263 262
255 255 255 255 255 255 255 255 255 255 256 256 256 257 257 257 258 258 258 259 259 259 259 260 260 260 260 260 260 260 260 260 260 260 260 260 260 260 260 260 260 260 260 260 260 261 261 261 261 261 261 261 262 262 262 262 262 262 262 262 262 262 262 262 262 261 261 261 261 261 261 261 261 261 261 261 261 261 261 262 262 262 262 262 262
254 254 255 255 255 256 256 256 256 256 256 256 257 257 257 257 258 258 258 259 259 259 260 260 260 260 261 261 261 261 261 261 261 261 261 261 261 261 261 261 261 261 262 262 262 262 262 262 262 262 262 262 262 262 262 262 263 263 263 263 263 263 263 263 262 262 262 262 261 261 261 261 261 261 261 261 261 261 261 261 261 261 261 261 261
253 253 254 255 255 255 256 256 256 256 257 257 257 257 257 258 258 258 258 259 259 259 260 260 260 260 261 261 261 261 261 261 262 262 262 262 262 262 262 262 262 262 263 263 263 263 263 264 264 264 264 264 264 264 264 263 263 263 263 263 262 262 262 262 262 262 262 262 262 261 261 261 261 261 261 260 260 260 260 260 260 260 260 260 260
Height
11014 11014 11014 11015 11015 11016 11016 11016 11017 11017 11017 11018 11018 11018 11019 11019 11019 11020 11020 11020 11020 11019 11019 11019 11019 11019 11019 11019 11018 11018 11017 11017 11016 11016 11016 11015 11015 11015 11014 11014 11014 11014 11013 11013 11012 11011 11010 11010 11009 11008 11007 11006 11005 11004 11003 11002 11001 11000 10999 10998 10997 10996 10995 10994 10993 10992 10991 10990 10989 10988 10986 10985 10984 10983 10982 10981 10980 10979 10978 10977 10976 10976 10975 10975 10975
11013 11014 11014 11014 11015 11016 11016 11016 11016 11017 11017 11017 11017 11017 11018 11018 11019 11019 11020 11020 11020 11020 11019 11019 11019 11019 11019 11019 11019 11019 11018 11018 11017 11017 11017 11016 11016 11016 11015 11015 11015 11014 11014 11014 11013 11012 11011 11010 11009 11008 11007 11007 11006 11005 11004 11003 11002 11001 11000 10999 10998 10997 10996 10995 10994 10993 10991 10990 10989 10988 10987 10985 10984 10983 10982 10981 10980 10979 10978 10977 10977 10976 10976 10975 10975
11012 11013 11014 11014 11014 11015 11016 11016 11016 11016 11016 11016 11016 11016 11016 11017 11018 11018 11019 11019 11020 11020 11019 11019 11019 11018 11018 11018 11018 11019 11018 11018 11018 11017 11017 11017 11017 11017 11016 11016 11015 11015 11015 11014 11013 11013 11012 11011 11010 11009 11008 11007 11007 11006 11005 11004 11003 11002 11001 11000 10999 10998 10997 10996 10994 10993 10992 10991 10989 10988 10987 10986 10985 10984 10983 10982 10980 10980 10979 10978 10977 10977 10976 10976 10976
11010 11012 11013 11013 11013 11014 11015 11015 11015 11015 11015 11015 11015 11015 11016 11016 11017 11017 11018 11018 11019 11019 11019 11019 11018 11018 11018 11017 11017 11018 11018 11018 11018 11018 11018 11018 11017 11017 11017 11016 11016 11015 11015 11014 11014 11013 11012 11011 11011 11010 11009 11008 11007 11007 11006 11005 11004 11003 11002 11001 11000 10999 10998 10996 10995 10994 10993 10991 10990 10989 10988 10987 10986 10985 10984 10983 10982 10981 10980 10979 10978 10978 10978 10977 10977
11007 11009 11010 11011 11012 11012 11013 11013 11013 11013 11013 11014 11014 11015 11015 11016 11016 11016 11017 11017 11017 11018 11017 11018 11018 11018 11018 11017 11017 11017 11017 11017 11017 11017 11017 11017 11017 11017 11017 11016 11016 11015 11014 11014 11013 11013 11012 11012 11011 11010 11010 11009 11008 11007 11006 11006 11005 11004 11003 11002 11001 11000 10999 10998 10996 10995 10994 10992 10991 10990 10989 10988 10987 10986 10985 10984 10983 10982 10982 10981 10980 10980 10979 10979 10978
11002 11004 11006 11008 11010 11011 11011 11011 11011 11011 11011 11012 11013 11014 11015 11015 11015 11016 11016 11016 11016 11017 11017 11017 11017 11017 11017 11017 11017 11017 11017 11017 11017 11017 11016 11016 11016 11016 11015 11015 11015 11014 11014 11013 11013 11013 11012 11012 11012 11011 11010 11010 11009 11008 11007 11006 11006 11005 11004 11003 11002 11001 11000 10999 10997 10996 10995 10994 10993 10992 10991 10990 10989 10988 10987 10986 10985 10985 10984 10983 10983 10982 10982 10981 10981
10997 10999 11001 11004 11007 11008 11009 11009 11009 11010 11010 11011 11012 11013 11014 11014 11015 11015 11015 11015 11015 11016 11016 11016 11016 11016 11016 11016 11016 11017 11017 11017 11017 11017 11016 11016 11015 11015 11014 11014 11013 11013 11013 11013 11012 11012 11012 11012 11012 11012 11011 11010 11009 11009 11008 11007 11006 11005 11005 11004 11003 11002 11001 11000 10999 10997 10996 10995 10994 10993 10992 10991 10991 10990 10989 10988 10987 10986 10986 10985 10985 10984 10984 10984 10983
10994 10995 10997 10999 11002 11004 11006 11007 11007 11008 11008 11009 11010 11011 11012 11012 11013 11013 11013 11013 11013 11014 11014 11014 11014 11014 11015 11015 11015 11015 11015 11016 11016 11016 11016 11015 11015 11014 11013 11013 11012 11012 11012 11011 11011 11011 11012 11012 11012 11012 11011 11011 11010 11009 11008 11007 11006 11006 11005 11004 11003 11002 11001 11000 11000 10999 10998 10997 10996 10995 10994 10993 10993 10992 10991 10990 10989 10988 10988 10987 10987 10986 10986 10986 10986
10990 10992 10994 10995 10997 11000 11001 11003 11005 11005 11006 11007 11008 11009 11009 11010 11011 11011 11011 11011 11011 11011 11011 11012 11013 11013 11013 11013 11013 11013 11014 11014 11014 11014 11014 11014 11014 11013 11013 11012 11012 11011 11011 11011 11010 11010 11011 11011 11011 11011 11011 11010 11010 11009 11009 11008 11007 11006 11005 11005 11004 11003 11002 11001 11000 10999 10999 10998 10998 10997 10996 10995 10995 10994 10994 10993 10992 10991 10990 10990 10989 10989 10988 10988 10988
10986 10988 10990 10991 10993 10995 10996 10999 11000 11002 11003 11004 11005 11006 11007 11008 11008 11008 11009 11009 11008 11009 11009 11009 11010 11011 11011 11012 11012 11012 11012 11012 11012 11012 11012 11013 11013 11013 11012 11012 11011 11010 11010 11009 11009 11009 11009 11009 11009 11009 11009 11009 11009 11009 11008 11007 11007 11006 11005 11005 11004 11003 11002 11001 11000 11000 11000 10999 10999 10998 10998 10997 10997 10996 10996 10996 10995 10995 10994 10993 10992 10992 10991 10991 10991
10981 10982 10984 10987 10989 10991 10992 10994 10995 10997 10999 11000 11001 11002 11003 11005 11005 11006 11006 11006 11006 11006 11006 11007 11007 11008 11009 11009 11010 11010 11010 11010 11010 11010 11010 11010 11011 11011 11011 11011 11010 11010 11009 11009 11008 11008 11008 11008 11008 11008 11008 11008 11007 11007 11007 11006 11006 11005 11005 11005 11005 11004 11003 11002 11001 11000 11000 11000 11000 10999 10999 10998 10998 10998 10998 10998 10998 10998 10997 10997 10996 10996 10995 10995 10994
10974 10977 10979 10982 10985 10987 10988 10990 10991 10992 10994 10995 10997 10998 11000 11001 11002 11003 11004 11004 11004 11004 11004 11004 11004 11005 11006 11006 11007 11008 11007 11007 11007 11007 11008 11008 11008 11009 11009 11009 11009 11009 11009 11008 11008 11007 11007 11007 11007 11007 11007 11006 11006 11006 11005 11004 11004 11004 11004 11005 11005 11005 11004 11003 11002 11001 11001 11000 11000 11000 10999 10999 10999 10999 10999 10999 10999 10999 10999 10999 10999 10999 10999 10998 10998
10969 10972 10975 10977 10980 10982 10984 10986 10987 10987 10989 10991 10992 10994 10996 10998 10999 11000 11000 11001 11002 11002 11001 11001 11002 11002 11003 11004 11005 11005 11005 11005 11005 11005 11005 11006 11006 11007 11007 11008 11008 11008 11008 11007 11007 11007 11006 11006 11006 11006 11005 11005 11005 11004 11003 11003 11003 11003 11004 11004 11004 11005 11004 11003 11002 11002 11001 11001 11000 11000 11000 10999 10999 10999 10999 10999 10999 11000 11000 11000 11000 11000 11000 11000 11000
10964 10967 10970 10972 10975 10977 10979 10981 10981 10982 10983 10985 10988 10990 10993 10995 10995 10996 10996 10996 10997 10998 10998 10999 10999 10999 11000 11001 11002 11002 11003 11003 11004 11003 11004 11004 11004 11005 11005 11006 11006 11006 11006 11006 11006 11006 11005 11005 11004 11004 11004 11003 11003 11002 11002 11001 11001 11002 11002 11003 11003 11003 11003 11003 11002 11001 11001 11001 11001 11000 11000 11000 11000 10999 10999 10999 10999 11000 11000 11000 11001 11001 11001 11001 11001
10960 10962 10965 10967 10969 10970 10973 10974 10974 10975 10978 10982 10986 10988 10990 10991 10991 10991 10990 10990 10991 10992 10993 10995 10995 10996 10997 10998 10998 10999 11000 11000 11001 11001 11001 11002 11002 11002 11003 11003 11004 11004 11004 11004 11004 11004 11004 11004 11003 11003 11002 11002 11001 11001 11001 11000 11001 11001 11001 11001 11002 11002 11002 11002 11001 11001 11001 11001 11001 11000 11000 11000 11000 11000 11000 11000 11000 11000 11000 11000 11000 11000 11001 11001 11001
10955 10956 10959 10961 10962 10964 10966 10967 10968 10971 10975 10980 10984 10985 10986 10987 10986 10985 10983 10982 10983 10986 10988 10989 10991 10992 10993 10994 10994 10995 10996 10997 10998 10998 10998 10999 10999 11000 11000 11001 11001 11002 11002 11002 11001 11001 11001 11001 11002 11001 11000 11000 10999 10999 10999 10999 10999 11000 11000 11000 11000 11001 11001 11000 10999 11000 11000 11001 11000 11000 11000 11000 11000 11000 11000 11000 11000 10999 10999 10999 10999 11000 11000 11000 11001
10948 10948 10952 10955 10955 10958 10961 10962 10965 10968 10972 10975 10976 10977 10979 10979 10978 10977 10977 10977 10978 10981 10983 10985 10986 10988 10989 10989 10990 10991 10992 10993 10994 10995 10995 10996 10996 10997 10997 10998 10998 10999 10999 10999 10999 10998 10998 10999 10999 10999 10999 10998 10997 10997 10997 10997 10997 10998 10998 10998 10999 11000 11000 10999 10998 10998 10999 10999 11000 11000 10999 10999 10999 10999 10999 10999 10999 10999 10999 10999 10999 10999 10999 10999 10999
10938 10940 10945 10948 10951 10954 10957 10959 10961 10963 10964 10965 10966 10968 10971 10972 10972 10972 10974 10974 10974 10976 10978 10979 10981 10982 10983 10985 10986 10987 10987 10988 10989 10990 10991 10991 10992 10993 10993 10994 10994 10995 10995 10995 10995 10995 10995 10996 10996 10997 10997 10996 10995 10995 10994 10994 10995 10996 10996 10997 10997 10998 10998 10997 10997 10996 10997 10997 10998 10998 10998 10998 10998 10998 10998 10998 10998 10998 10998 10998 10997 10998 10998 10998 10998
10931 10936 10940 10944 10947 10948 10949 10951 10953 10954 10956 10957 10958 10960 10963 10966 10968 10968 10968 10969 10970 10972 10973 10974 10975 10977 10978 10980 10981 10982 10982 10983 10984 10985 10986 10987 10987 10988 10988 10989 10990 10991 10991 10992 10992 10992 10992 10992 10993 10994 10995 10994 10994 10993 10992 10992 10993 10993 10994 10994 10995 10996 10996 10995 10995 10995 10994 10994 10995 10995 10996 10996 10996 10996 10996 10996 10996 10996 10996 10996 10996 10996 10996 10996 10996
10927 10932 10935 10938 10939 10937 10937 10941 10945 10947 10949 10950 10950 10953 10957 10960 10962 10961 10961 10963 10965 10966 10967 10969 10970 10971 10973 10975 10976 10976 10977 10978 10979 10980 10981 10982 10983 10983 10984 10984 10985 10986 10987 10988 10988 10988 10988 10988 10989 10990 10991 10991 10991 10991 10990 10990 10990 10990 10991 10992 10992 10993 10993 10993 10993 10993 10992 10992 10992 10992 10993 10994 10994 10994 10994 10994 10994 10994 10994 10994 10995 10995 10994 10994 10994
10920 10924 10928 10930 10930 10928 10929 10934 10938 10940 10941 10941 10944 10948 10950 10953 10954 10954 10954 10957 10959 10960 10961 10963 10965 10966 10968 10970 10971 10971 10972 10973 10974 10974 10976 10977 10978 10979 10979 10980 10980 10981 10982 10983 10984 10984 10984 10985 10985 10985 10986 10987 10988 10987 10987 10987 10987 10987 10988 10988 10989 10989 10990 10991 10991 10991 10990 10989 10989 10990 10990 10991 10991 10991 10991 10991 10991 10991 10991 10991 10992 10992 10992 10992 10992
10912 10915 10919 10922 10922 10921 10923 10928 10932 10933 10933 10934 10938 10940 10941 10944 10947 10948 10948 10951 10953 10954 10956 10957 10958 10961 10963 10965 10966 10967 10967 10968 10968 10969 10970 10971 10973 10974 10975 10975 10976 10977 10977 10978 10979 10979 10980 10981 10981 10982 10982 10983 10983 10984 10984 10984 10984 10984 10984 10985 10985 10985 10986 10987 10987 10988 10987 10987 10987 10987 10987 10988 10988 10988 10988 10988 10988 10988 10988 10988 10988 10988 10988 10988 10989
10903 10906 10910 10913 10914 10914 10916 10920 10924 10925 10926 10927 10930 10931 10932 10936 10940 10941 10942 10944 10947 10948 10950 10951 10952 10954 10956 10958 10959 10961 10962 10962 10963 10964 10964 10965 10967 10969 10970 10970 10971 10971 10972 10973 10974 10974 10975 10977 10977 10978 10978 10979 10979 10979 10980 10980 10980 10981 10981 10981 10981 10982 10982 10982 10983 10984 10984 10984 10983 10983 10984 10984 10985 10985 10985 10985 10984 10984 10984 10984 10984 10983 10983 10984 10984
10894 10897 10900 10903 10905 10906 10909 10913 10917 10918 10919 10921 10922 10922 10923 10927 10931 10933 10935 10937 10940 10942 10943 10944 10946 10947 10949 10950 10952 10954 10955 10956 10957 10958 10959 10959 10961 10963 10964 10965 10965 10966 10967 10968 10969 10969 10970 10971 10972 10973 10974 10975 10975 10975 10975 10975 10976 10977 10978 10978 10978 10978 10978 10978 10978 10979 10979 10980 10980 10980 10980 10981 10981 10981 10981 10981 10981 10980 10980 10980 10980 10979 10979 10978 10979
10884 10887 10890 10893 10895 10897 10901 10905 10908 10910 10911 10913 10915 10916 10916 10917 10921 10924 10927 10929 10933 10935 10936 10937 10939 10940 10941 10943 10944 10946 10948 10949 10951 10952 10953 10953 10954 10956 10958 10958 10959 10960 10961 10962 10963 10964 10964 10965 10966 10967 10968 10969 10970 10970 10971 10971 10971 10972 10973 10974 10975 10975 10975 10975 10975 10974 10974 10975 10976 10976 10977 10977 10977 10977 10977 10977 10977 10976 10976 10976 10975 10975 10974 10974 10974
10873 10876 10879 10882 10884 10887 10891 10895 10898 10901 10902 10904 10907 10909 10909 10909 10910 10913 10917 10920 10924 10926 10928 10929 10931 10932 10934 10935 10937 10938 10940 10942 10944 10945 10947 10947 10948 10949 10950 10951 10952 10953 10954 10955 10956 10957 10958 10959 10960 10961 10962 10963 10964 10964 10965 10966 10966 10967 10968 10969 10970 10971 10971 10971 10971 10971 10970 10970 10971 10971 10972 10973 10973 10974 10973 10973 10973 10972 10972 10971 10970 10970 10970 10969 10969
10861 10864 10867 10870 10873 10876 10878 10882 10886 10890 10893 10895 10897 10900 10901 10902 10902 10904 10907 10910 10914 10917 10919 10920 10922 10924 10925 10927 10928 10930 10932 10934 10936 10937 10939 10940 10941 10942 10943 10944 10945 10945 10946 10947 10948 10950 10951 10952 10952 10953 10954 10955 10956 10958 10958 10959 10960 10961 10962 10963 10964 10965 10966 10966 10966 10966 10966 10966 10966 10966 10966 10967 10968 10969 10969 10969 10969 10969 10968 10968 10966 10965 10965 10965 10964
10847 10851 10855 10858 10860 10863 10866 10869 10873 10877 10881 10884 10887 10889 10891 10893 10894 10895 10897 10900 10903 10906 10908 10910 10912 10914 10916 10918 10919 10921 10923 10925 10927 10929 10931 10932 10933 10934 10935 10936 10937 10937 10937 10938 10939 10941 10942 10944 10944 10945 10946 10947 10948 10950 10951 10952 10953 10954 10955 10956 10957 10958 10959 10960 10960 10961 10961 10961 10961 10961 10961 10961 10962 10962 10963 10964 10964 10964 10964 10964 10963 10962 10961 10960 10959
10834 10837 10841 10845 10848 10850 10853 10857 10860 10863 10867 10871 10875 10878 10880 10882 10884 10886 10888 10890 10892 10894 10896 10899 10901 10903 10905 10907 10909 10911 10913 10915 10917 10919 10921 10923 10924 10925 10926 10927 10928 10928 10929 10929 10930 10931 10932 10934 10935 10937 10938 10939 10940 10941 10942 10943 10944 10945 10946 10948 10949 10950 10951 10952 10953 10954 10954 10954 10955 10955 10955 10955 10955 10956 10957 10957 10958 10958 10959 10959 10959 10958 10957 10956 10954
10820 10824 10827 10831 10834 10837 10840 10843 10846 10850 10854 10857 10861 10865 10868 10871 10873 10875 10877 10879 10881 10883 10884 10887 10890 10892 10894 10895 10897 10900 10902 10904 10906 10908 10910 10912 10913 10914 10915 10916 10917 10919 10920 10920 10921 10922 10923 10924 10925 10927 10928 10930 10931 10933 10934 10935 10936 10937 10938 10939 10940 10941 10943 10943 10944 10945 10946 10947 10948 10948 10948 10949 10949 10949 10949 10950 10950 10952 10953 10953 10953 10952 10952 10951 10950
10806 10810 10813 10817 10820 10823 10826 10829 10833 10836 10840 10844 10848 10852 10856 10859 10862 10864 10866 10868 10869 10871 10872 10874 10877 10881 10883 10885 10887 10889 10891 10892 10894 10896 10898 10900 10901 10902 10903 10905 10906 10907 10909 10910 10911 10912 10913 10914 10915 10916 10918 10919 10921 10922 10924 10926 10927 10928 10930 10930 10931 10932 10933 10934 10935 10936 10937 10938 10940 10940 10941 10941 10941 10941 10942 10943 10944 10945 10946 10946 10946 10946 10946 10945 10945
10791 10795 10799 10802 10806 10809 10812 10816 10819 10823 10826 10830 10834 10838 10842 10846 10849 10851 10854 10855 10857 10859 10861 10862 10865 10868 10871 10874 10877 10879 10880 10882 10883 10884 10886 10888 10889 10890 10891 10892 10893 10895 10897 10898 10900 10901 10902 10903 10904 10905 10907 10908 10909 10911 10913 10915 10916 10918 10920 10921 10922 10923 10924 10924 10925 10926 10928 10929 10930 10931 10932 10933 10933 10933 10933 10935 10936 10937 10938 10939 10939 10940 10939 10939 10939
10776 10780 10785 10788 10792 10795 10799 10803 10807 10810 10814 10817 10821 10825 10828 10832 10834 10837 10840 10842 10845 10847 10849 10851 10853 10855 10858 10861 10864 10866 10869 10871 10873 10874 10875 10876 10877 10877 10878 10879 10880 10881 10883 10885 10887 10888 10890 10891 10892 10893 10894 10896 10897 10899 10901 10903 10904 10906 10908 10910 10911 10913 10914 10915 10916 10916 10917 10918 10920 10921 10923 10924 10924 10924 10924 10926 10926 10927 10928 10930 10931 10932 10932 10932 10932
10762 10767 10771 10775 10778 10782 10786 10790 10794 10797 10801 10804 10807 10811 10814 10818 10821 10824 10826 10829 10831 10834 10836 10838 10840 10843 10845 10848 10850 10853 10855 10858 10861 10863 10864 10865 10865 10865 10866 10866 10867 10868 10870 10871 10873 10875 10876 10878 10879 10880 10881 10882 10884 10886 10888 10890 10892 10893 10895 10897 10899 10900 10902 10904 10905 10906 10907 10908 10909 10910 10912 10914 10914 10914 10915 10916 10916 10917 10918 10919 10921 10923 10924 10924 10924
10748 10753 10757 10761 10765 10769 10773 10777 10781 10784 10787 10791 10794 10798 10801 10804 10807 10810 10813 10815 10817 10820 10822 10824 10827 10829 10832 10834 10836 10839 10841 10844 10847 10849 10852 10853 10853 10854 10854 10855 10855 10855 10857 10858 10859 10861 10862 10864 10865 10866 10868 10869 10871 10872 10874 10876 10878 10879 10881 10883 10885 10887 10889 10891 10892 10894 10895 10897 10898 10899 10900 10902 10903 10904 10904 10905 10905 10906 10907 10908 10910 10912 10913 10914 10915
10734 10739 10744 10748 10752 10757 10761 10764 10767 10770 10774 10777 10781 10785 10788 10791 10794 10796 10799 10801 10803 10806 10808 10810 10813 10815 10817 10819 10821 10824 10826 10829 10832 10834 10837 10838 10839 10840 10842 10843 10843 10843 10844 10845 10846 10847 10849 10850 10851 10853 10854 10856 10857 10859 10860 10862 10863 10865 10867 10869 10870 10872 10875 10876 10878 10880 10882 10884 10886 10888 10889 10890 10891 10892 10893 10894 10894 10895 10895 10896 10898 10900 10902 10903 10905
10719 10725 10730 10735 10739 10744 10748 10751 10753 10756 10760 10763 10767 10770 10773 10777 10779 10782 10784 10787 10789 10792 10795 10797 10799 10801 10802 10803 10805 10808 10811 10813 10816 10819 10821 10823 10824 10825 10827 10828 10830 10831 10831 10832 10832 10834 10835 10836 10838 10839 10840 10841 10843 10844 10846 10848 10849 10850 10852 10854 10856 10858 10860 10862 10864 10866 10868 10870 10872 10874 10876 10878 10879 10880 10881 10881 10882 10883 10884 10884 10886 10887 10889 10891 10893
10705 10710 10716 10721 10725 10729 10733 10736 10739 10742 10745 10749 10752 10756 10759 10762 10764 10766 10769 10772 10775 10778 10780 10782 10784 10786 10787 10788 10789 10792 10795 10797 10800 10803 10805 10807 10808 10810 10812 10813 10815 10816 10817 10818 10819 10820 10821 10822 10823 10825 10826 10827 10828 10830 10831 10833 10835 10836 10838 10839 10841 10843 10845 10847 10849 10851 10853 10855 10858 10859 10861 10863 10865 10867 10868 10869 10870 10871 10871 10872 10873 10874 10875 10877 10879
10690 10695 10700 10705 10710 10714 10717 10720 10724 10727 10730 10734 10737 10741 10744 10747 10748 10750 10753 10757 10761 10763 10766 10767 10769 10772 10773 10773 10774 10776 10779 10781 10784 10786 10789 10790 10792 10794 10796 10797 10799 10800 10801 10803 10804 10805 10806 10807 10808 10810 10811 10812 10813 10815 10816 10818 10820 10821 10823 10824 10826 10828 10830 10832 10834 10836 10838 10840 10842 10845 10847 10848 10850 10852 10853 10855 10857 10858 10859 10859 10860 10861 10862 10863 10865
10676 10680 10685 10689 10694 10698 10702 10705 10708 10712 10715 10718 10721 10725 10729 10731 10732 10734 10738 10742 10745 10748 10750 10752 10754 10757 10759 10760 10760 10761 10763 10765 10768 10770 10772 10774 10775 10777 10778 10781 10782 10784 10785 10786 10787 10789 10790 10791 10793 10794 10796 10797 10798 10799 10801 10803 10804 10805 10807 10808 10810 10812 10814 10816 10818 10820 10822 10824 10827 10829 10831 10833 10835 10836 10838 10840 10842 10844 10845 10846 10847 10848 10849 10850 10851
10661 10665 10669 10674 10678 10682 10686 10689 10693 10696 10699 10702 10705 10709 10712 10714 10716 10718 10721 10725 10728 10731 10733 10735 10738 10741 10743 10744 10745 10746 10747 10749 10751 10753 10755 10757 10758 10760 10761 10763 10765 10767 10767 10768 10769 10771 10773 10774 10776 10778 10779 10780 10782 10783 10786 10787 10789 10790 10791 10792 10794 10796 10798 10800 10802 10804 10806 10808 10810 10812 10815 10817 10818 10820 10822 10824 10826 10829 10830 10831 10832 10833 10835 10836 10837
10646 10650 10654 10658 10662 10666 10670 10673 10676 10680 10683 10686 10689 10692 10695 10698 10700 10702 10704 10707 10711 10714 10716 10718 10720 10723 10726 10727 10728 10730 10731 10732 10733 10735 10736 10739 10741 10743 10744 10746 10748 10749 10749 10750 10751 10752 10754 10756 10758 10760 10761 10763 10764 10766 10768 10771 10773 10774 10775 10776 10778 10780 10781 10783 10785 10787 10789 10791 10793 10795 10797 10799 10801 10804 10805 10807 10810 10812 10814 10816 10817 10818 10820 10821 10822
10632 10636 10639 10643 10646 10650 10653 10657 10660 10663 10666 10670 10673 10676 10678 10681 10683 10685 10688 10690 10693 10696 10698 10700 10702 10705 10707 10709 10710 10712 10714 10716 10717 10717 10718 10720 10723 10725 10727 10729 10730 10731 10731 10731 10731 10733 10735 10737 10739 10740 10742 10744 10746 10747 10750 10752 10755 10757 10759 10760 10762 10763 10765 10767 10769 10770 10772 10774 10776 10778 10780 10781 10783 10786 10788 10790 10793 10795 10797 10798 10800 10802 10804 10806 10807
10619 10622 10626 10629 10632 10635 10638 10641 10644 10647 10650 10653 10656 10659 10661 10664 10666 10669 10671 10673 10675 10678 10680 10682 10684 10687 10689 10690 10692 10693 10695 10698 10700 10700 10701 10702 10703 10706 10708 10710 10712 10712 10712 10712 10713 10714 10716 10718 10720 10721 10722 10724 10726 10728 10730 10732 10735 10737 10740 10742 10744 10747 10749 10751 10753 10753 10754 10756 10758 10760 10762 10763 10765 10767 10770 10772 10775 10778 10780 10781 10782 10784 10787 10789 10791
10606 10609 10613 10616 10618 10621 10623 10626 10629 10632 10634 10637 10640 10643 10645 10648 10650 10652 10654 10656 10658 10660 10662 10664 10666 10668 10670 10672 10674 10675 10676 10678 10680 10682 10683 10684 10685 10686 10688 10691 10692 10693 10693 10693 10695 10697 10698 10699 10700 10701 10703 10705 10707 10708 10710 10712 10715 10717 10719 10722 10725 10728 10731 10734 10735 10736 10738 10739 10741 10742 10743 10744 10746 10748 10751 10753 10756 10759 10761 10763 10764 10766 10768 10770 10772
10593 10597 10599 10602 10605 10607 10610 10612 10615 10617 10620 10622 10624 10627 10629 10631 10634 10636 10637 10639 10641 10642 10644 10646 10647 10649 10651 10653 10655 10656 10658 10659 10661 10663 10664 10665 10667 10668 10669 10671 10672 10673 10673 10674 10676 10678 10680 10680 10681 10682 10684 10686 10687 10689 10690 10692 10694 10696 10699 10702 10705 10709 10711 10714 10716 10718 10719 10721 10724 10724 10725 10726 10727 10728 10731 10733 10736 10739 10742 10744 10745 10747 10749 10751 10753
10578 10583 10586 10589 10592 10594 10596 10598 10601 10603 10605 10607 10609 10612 10614 10615 10617 10619 10621 10622 10623 10625 10626 10628 10629 10630 10632 10634 10635 10637 10638 10640 10641 10643 10644 10646 10647 10648 10650 10651 10652 10652 10653 10655 10657 10659 10660 10661 10663 10664 10665 10667 10668 10669 10671 10672 10673 10675 10677 10681 10684 10688 10691 10693 10695 10697 10699 10701 10704 10705 10705 10707 10708 10709 10711 10712 10715 10718 10721 10724 10725 10727 10729 10731 10734
10561 10565 10569 10573 10576 10579 10582 10584 10586 10588 10590 10592 10594 10596 10598 10599 10601 10602 10603 10605 10606 10607 10608 10610 10611 10612 10613 10614 10615 10617 10618 10619 10620 10622 10623 10625 10626 10627 10629 10631 10632 10633 10634 10635 10637 10638 10640 10642 10643 10645 10646 10647 10648 10649 10651 10652 10653 10654 10655 10657 10660 10665 10669 10672 10674 10675 10677 10680 10682 10683 10684 10686 10688 10689 10690 10691 10693 10696 10699 10702 10704 10706 10708 10710 10712
10544 10548 10552 10555 10559 10562 10565 10568 10570 10572 10574 10576 10578 10579 10581 10582 10584 10585 10586 10587 10588 10590 10591 10592 10593 10594 10595 10595 10596 10597 10598 10599 10599 10600 10601 10603 10604 10606 10607 10609 10610 10612 10614 10615 10616 10618 10619 10621 10623 10624 10626 10627 10628 10629 10630 10631 10632 10633 10634 10636 10638 10641 10644 10647 10650 10653 10655 10658 10659 10660 10661 10664 10666 10668 10669 10670 10671 10674 10677 10679 10681 10683 10685 10688 10690
10529 10532 10535 10538 10542 10544 10547 10550 10552 10554 10556 10558 10560 10562 10563 10565 10566 10568 10569 10570 10571 10572 10573 10574 10575 10575 10576 10576 10577 10577 10578 10578 10579 10580 10580 10581 10582 10584 10585 10586 10588 10590 10592 10593 10595 10597 10598 10600 10602 10603 10605 10606 10607 10608 10609 10610 10611 10612 10613 10615 10617 10619 10620 10623 10626 10629 10632 10635 10636 10637 10638 10641 10643 10644 10645 10647 10649 10651 10654 10656 10658 10660 10662 10664 10667
10516 10518 10521 10523 10526 10528 10530 10532 10535 10537 10539 10540 10542 10544 10545 10547 10548 10550 10551 10552 10553 10554 10555 10556 10557 10557 10557 10558 10558 10558 10558 10559 10559 10559 10560 10561 10562 10563 10564 10565 10567 10569 10571 10572 10574 10576 10578 10579 10581 10582 10583 10585 10585 10586 10587 10588 10588 10589 10590 10591 10593 10595 10597 10599 10601 10603 10606 10608 10611 10613 10614 10616 10618 10619 10620 10622 10624 10627 10630 10632 10634 10636 10638 10640 10642